DIERAUER Weather Reports


time (UTC)temp
F
wind
direction
speed
knots
gust
knots
rain 1hr
in
rain 24hr
in
rain mn
in
humidity
%
barometer
mb
20260504215004 70 215 12.2 17.4 0.00 0.00 0.00 52 1006.3
20260504214521 71 227 12.2 19.1 0.00 0.00 0.00 52 1006.3
20260504214005 72 253 10.4 19.1 0.00 0.00 0.00 52 1006.3
20260504213506 72 227 12.2 17.4 0.00 0.00 0.00 53 1006.3
20260504213026 71 228 13.9 17.4 0.00 0.00 0.00 53 1006.4
20260504212511 71 240 11.3 18.2 0.00 0.00 0.00 57 1006.4
20260504212007 70 197 13.9 17.4 0.00 0.00 0.00 55 1006.1
20260504211527 71 210 10.4 20.9 0.00 0.00 0.00 55 1006.4
20260504211006 70 226 13.0 20.9 0.00 0.00 0.00 55 1006.8
20260504210503 70 239 12.2 19.1 0.00 0.00 0.00 56 1006.8
20260504210017 70 246 12.2 19.1 0.00 0.00 0.00 56 1006.9
20260504205503 70 252 10.4 16.5 0.00 0.00 0.00 57 1006.9
20260504205003 69 226 12.2 15.6 0.00 0.00 0.00 58 1007.1
20260504204521 68 205 8.7 15.6 0.00 0.00 0.00 63 1007.2
20260504204008 67 226 9.6 15.6 0.00 0.00 0.00 63 1007.2
20260504203510 67 190 7.8 15.6 0.00 0.00 0.00 66 1007.3
20260504203012 66 219 7.8 14.8 0.00 0.00 0.00 68 1007.2
20260504202506 65 200 8.7 12.2 0.00 0.00 0.00 67 1007.2
20260504202006 65 202 8.7 12.2 0.00 0.00 0.00 68 1007.2
20260504201525 65 205 7.8 11.3 0.00 0.00 0.00 69 1007.3
20260504201004 64 216 6.1 11.3 0.00 0.00 0.00 68 1007.0
20260504200508 64 227 7.8 10.4 0.00 0.00 0.00 68 1007.4
20260504200026 64 198 7.0 10.4 0.00 0.00 0.00 70 1007.5
20260504195504 63 240 7.8 11.3 0.00 0.00 0.00 70 1008.0
20260504195007 63 230 8.7 14.8 0.00 0.00 0.00 70 1008.0
20260504194508 63 238 8.7 16.5 0.00 0.00 0.00 69 1008.1
20260504194003 64 246 6.1 20.9 0.00 0.00 0.00 69 1008.6
20260504193508 66 235 12.2 24.3 0.00 0.00 0.00 63 1009.0
20260504193003 66 251 13.9 24.3 0.00 0.00 0.00 61 1009.1
20260504192502 67 232 13.0 20.9 0.00 0.00 0.00 60 1009.0
20260504192003 67 227 13.0 19.1 0.00 0.00 0.00 59 1008.8
20260504191504 68 241 13.9 19.1 0.00 0.00 0.00 59 1008.7
20260504191003 68 234 13.0 21.7 0.00 0.00 0.00 59 1008.6
20260504190506 68 242 11.3 20.9 0.00 0.00 0.00 59 1008.5
20260504190006 68 223 10.4 18.2 0.00 0.00 0.00 59 1008.3
20260504185502 69 211 13.0 20.0 0.00 0.00 0.00 56 1008.0
20260504185006 69 206 12.2 20.0 0.00 0.00 0.00 56 1008.1
20260504184516 69 186 12.2 17.4 0.00 0.00 0.00 56 1008.2
20260504184002 69 232 12.2 20.0 0.00 0.00 0.00 58 1008.0
20260504183503 69 219 13.9 20.9 0.00 0.00 0.00 55 1007.8
20260504183012 70 224 11.3 20.9 0.00 0.00 0.00 55 1007.6
20260504182503 69 217 13.9 20.0 0.00 0.00 0.00 55 1007.8
20260504182003 69 210 12.2 20.9 0.00 0.00 0.00 56 1007.7
20260504181503 68 205 13.0 20.9 0.00 0.00 0.00 58 1007.8
20260504181003 68 207 13.9 19.1 0.00 0.00 0.00 57 1007.8
20260504180503 68 213 9.6 17.4 0.00 0.00 0.00 56 1007.8
20260504180006 68 218 13.9 19.1 0.00 0.00 0.00 55 1007.9
20260504175502 68 218 13.0 19.1 0.00 0.00 0.00 55 1008.0
20260504175003 68 213 13.0 22.6 0.00 0.00 0.00 56 1008.0
20260504174504 68 203 14.8 21.7 0.00 0.00 0.00 58 1008.1
20260504174004 68 207 10.4 19.1 0.00 0.00 0.00 57 1008.1
20260504173504 67 200 14.8 19.1 0.00 0.00 0.00 56 1008.0
20260504173015 67 222 12.2 20.9 0.00 0.00 0.00 57 1008.0
20260504172502 67 207 12.2 20.9 0.00 0.00 0.00 56 1008.1
20260504172003 66 219 10.4 17.4 0.00 0.00 0.00 58 1008.1
20260504171519 66 225 12.2 17.4 0.00 0.00 0.00 58 1008.2
20260504171004 66 219 12.2 19.1 0.00 0.00 0.00 56 1008.2
20260504170502 67 231 13.9 19.1 0.00 0.00 0.00 56 1008.2
20260504151009 62 227 12.2 15.6 0.00 0.00 0.00 64 1008.9
20260504150504 61 211 9.6 15.6 0.00 0.00 0.00 65 1008.8
20260504141002 58 218 13.9 24.3 0.00 0.00 0.00 66 1009.2
20260504140507 58 217 15.6 24.3 0.00 0.00 0.00 66 1009.2
20260504130508 55 194 10.4 17.4 0.00 0.00 0.00 69 1009.6
20260504110507 49 216 7.8 11.3 0.00 0.00 0.00 71 1009.3
20260504100507 48 215 7.0 10.4 0.00 0.00 0.00 70 1009.5
20260504082003 49 196 8.7 11.3 0.00 0.00 0.00 68 1010.2
20260504081507 49 196 8.7 13.0 0.00 0.00 0.00 68 1010.2
20260504081002 49 203 8.7 13.0 0.00 0.00 0.00 68 1010.2
20260504080504 49 207 8.7 12.2 0.00 0.00 0.00 68 1010.2
20260504050505 51 192 7.8 12.2 0.00 0.00 0.00 64 1012.0
20260504050013 52 198 7.0 12.2 0.00 0.00 0.00 63 1012.1
20260504045502 52 198 7.8 11.3 0.00 0.00 0.00 63 1012.1
20260504045002 52 200 7.8 10.4 0.00 0.00 0.00 63 1012.1
20260504044512 52 202 8.7 11.3 0.00 0.00 0.00 62 1012.2
20260504044003 52 200 8.7 11.3 0.00 0.00 0.00 62 1012.2
20260504043504 52 197 8.7 11.3 0.00 0.00 0.00 62 1012.2
20260504043012 52 202 8.7 11.3 0.00 0.00 0.00 62 1012.2
20260504042504 52 217 7.8 11.3 0.00 0.00 0.00 63 1012.3
20260504042004 52 192 7.8 11.3 0.00 0.00 0.00 64 1012.3
20260504041515 52 190 7.8 11.3 0.00 0.00 0.00 65 1012.4
20260504041003 51 199 7.8 9.6 0.00 0.00 0.00 65 1012.4
20260504040504 51 190 7.8 9.6 0.00 0.00 0.00 65 1012.4
20260504040013 51 189 7.0 8.7 0.00 0.00 0.00 66 1012.6
20260504035503 51 195 7.0 8.7 0.00 0.00 0.00 67 1012.6
20260504035005 51 182 7.0 8.7 0.00 0.00 0.00 69 1012.7
20260504034523 51 182 5.2 7.0 0.00 0.00 0.00 70 1012.8
20260504034003 51 184 5.2 7.0 0.00 0.00 0.00 70 1012.8
20260504033506 51 186 5.2 7.0 0.00 0.00 0.00 71 1012.8
20260504033028 50 182 5.2 7.0 0.00 0.00 0.00 72 1012.9
20260504032505 50 176 4.3 7.0 0.00 0.00 0.00 72 1012.9
20260504032005 51 180 4.3 7.0 0.00 0.00 0.00 71 1012.9
20260504031515 51 179 4.3 7.0 0.00 0.00 0.00 69 1012.9
20260504031005 51 161 4.3 7.8 0.00 0.00 0.00 69 1013.0
20260504030507 50 181 5.2 7.8 0.00 0.00 0.00 69 1013.0
20260504030017 50 176 5.2 7.8 0.00 0.00 0.00 71 1013.1
20260504025504 49 165 4.3 6.1 0.00 0.00 0.00 75 1013.3
20260504025004 49 178 3.5 5.2 0.00 0.00 0.00 74 1013.4
20260504024535 50 181 3.5 5.2 0.00 0.00 0.00 75 1013.3
20260504024008 50 163 3.5 5.2 0.00 0.00 0.00 72 1013.3
20260504023504 50 166 2.6 6.1 0.00 0.00 0.00 70 1013.2
20260504023018 50 155 1.7 6.1 0.00 0.00 0.00 70 1013.3
20260504022504 50 140 2.6 6.1 0.00 0.00 0.00 70 1013.3
20260504022007 50 167 2.6 5.2 0.00 0.00 0.00 71 1013.3
20260504021518 50 140 2.6 4.3 0.00 0.00 0.00 71 1013.3
20260504021004 50 147 1.7 3.5 0.00 0.00 0.00 69 1013.3
20260504020506 50 137 1.7 4.3 0.00 0.00 0.00 69 1013.3
20260504020017 50 140 1.7 4.3 0.00 0.00 0.00 69 1013.3
20260504015507 50 117 3.5 6.1 0.00 0.00 0.00 68 1013.2
20260504015005 50 153 2.6 6.1 0.00 0.00 0.00 69 1013.2
20260504014517 50 141 2.6 6.1 0.00 0.00 0.00 69 1013.2
20260504014007 50 135 2.6 6.1 0.00 0.00 0.00 69 1013.3
20260504013502 50 128 2.6 5.2 0.00 0.00 0.00 70 1013.3
20260504013015 50 132 2.6 4.3 0.00 0.00 0.00 71 1013.3
20260504012503 50 135 1.7 4.3 0.00 0.00 0.00 72 1013.4
20260504012003 50 135 2.6 5.2 0.00 0.00 0.00 72 1013.4
20260504011503 50 150 1.7 5.2 0.00 0.00 0.00 71 1013.3
20260504011003 50 132 1.7 3.5 0.00 0.00 0.00 1013.3
20260504010505 50 128 1.7 2.6 0.00 0.00 0.00 1013.3
20260504010003 50 107 1.7 2.6 0.00 0.00 0.00 73 1013.2
20260504005504 50 118 1.7 2.6 0.00 0.00 0.00 73 1013.2
20260504005003 50 112 0.9 2.6 0.00 0.00 0.00 72 1013.2
20260504004533 50 105 0.9 2.6 0.00 0.00 0.00 72 1013.2
20260504004003 50 96 1.7 2.6 0.00 0.00 0.00 72 1013.2
20260504003507 50 103 0.9 3.5 0.00 0.00 0.00 71 1013.2
20260504003021 50 101 1.7 3.5 0.00 0.00 0.00 71 1013.3
20260504002504 50 77 1.7 4.3 0.00 0.00 0.00 71 1013.2
20260504002002 50 119 1.7 4.3 0.00 0.00 0.00 70 1013.1
20260504001503 50 59 2.6 5.2 0.00 0.00 0.00 70 1013.1
20260504001005 50 100 1.7 5.2 0.00 0.00 0.00 71 1013.0
20260504000502 50 84 1.7 5.2 0.00 0.00 0.00 69 1013.0
20260504000009 50 88 2.6 7.0 0.00 0.00 0.00 71 1012.9
20260503235504 50 78 3.5 7.0 0.00 0.00 0.00 70 1012.9
20260503235003 50 100 2.6 5.2 0.00 0.00 0.00 71 1012.9
20260503234511 50 90 1.7 5.2 0.00 0.00 0.00 71 1013.0
20260503234003 50 100 2.6 5.2 0.00 0.00 0.00 71 1013.0
20260503233506 50 88 1.7 5.2 0.00 0.00 0.00 71 1013.2
20260503233008 50 86 1.7 5.2 0.00 0.00 0.00 71 1013.2
20260503232506 50 82 1.7 5.2 0.00 0.00 0.00 71 1013.4
20260503232006 50 71 2.6 5.2 0.00 0.00 0.00 70 1013.5
20260503231508 51 65 2.6 5.2 0.00 0.00 0.00 69 1013.6
20260503231005 51 74 2.6 4.3 0.00 0.00 0.00 69 1013.7
20260503230504 51 53 1.7 5.2 0.00 0.00 0.00 71 1013.9
20260503230008 51 34 4.3 5.2 0.00 0.00 0.00 69 1013.9
20260503225503 51 47 2.6 4.3 0.00 0.00 0.00 70 1014.0
20260503225003 51 52 2.6 4.3 0.00 0.00 0.00 68 1014.0
20260503224511 51 352 3.5 4.3 0.00 0.00 0.00 68 1014.2
20260503224005 51 350 2.6 3.5 0.00 0.00 0.00 67 1014.4
20260503223503 50 340 1.7 1.7 0.00 0.00 0.00 67 1014.5
20260503223014 50 331 0.9 2.6 0.00 0.00 0.00 70 1014.5
20260503222503 50 250 0.9 2.6 0.00 0.00 0.00 71 1014.6
20260503222002 50 344 1.7 2.6 0.00 0.00 0.00 68 1014.5
20260503221516 51 332 0.0 2.6 0.00 0.00 0.00 66 1014.5
20260503221006 51 331 0.0 3.5 0.00 0.00 0.00 65 1014.6
20260503220503 51 275 0.9 6.1 0.00 0.00 0.00 65 1014.9
20260503220015 51 246 1.7 6.1 0.00 0.00 0.00 65 1014.9
20260503215504 51 221 3.5 9.6 0.00 0.00 0.00 63 1014.9